sat.trackr.live / text

‹ back to catalog

STARLINK-36994

NORAD 67997 · 2026-039M

PAYLOAD ACTIVE UNKNOWN

§ Identity

Operator
Country
US
Launch date
2026-02-27
Launch site
AFETR
Launch vehicle
Mass (kg)
RCS (m²)

Purposes: comms

External: N2YO · Heavens-Above · Gunter

§ Orbital elements

Epoch: 2026-05-24T21:44:01.362048Z

Period
94.27 min
Inclination
43.0026°
Eccentricity
0.0001285
Mean motion
15.27595496 rev/d
Perigee alt
482.1 km
Apogee alt
483.9 km
Semi-major
6,861.1 km
B*
5.1002e-4
RAAN
338.1602°
Arg perigee
277.0900°
Mean anomaly
82.9806°
Rev number
1,336

§ Raw data

STARLINK-369941 67997U 26039M   26144.90557132  .00013805  00000+0  51002-3 0  99942 67997  43.0026 338.1602 0001285 277.0900  82.9806 15.27595496 13368

JSON: /api/v1/satellites/67997 · /tle

For live sub-satellite position, see the globe view (requires WebGL).

§ Visibility from observer

Set your observer location to see the next 7 days of passes ≥ 10°. The values pass through the URL so the page stays shareable.

No JS? Fill the form by hand. The geolocation button needs JavaScript.